LiveATC.Net - Listen to live air traffic control over the Internet! Contact LiveATC.net for advertising information


ICAO: KSTS  IATA: STS   Airport: Charles M. Schulz - Sonoma County Airport
City: Santa Rosa   State/Province: California
Country: United States   Continent: North America
KSTS METAR Weather: KSTS 202153Z 12004KT 10SM FEW025 BKN047 OVC065 13/12 A2998 RMK AO2 RAE2058 SLP146 P0000 T01330117
KSTS Flight Activity (FlightAware)
KSTS Airport Info   (AirNav) (iFlightPlanner)
KSTS Tower
Feed Status: DOWN
Last heard on: 2014-11-20 19:58:03 (0 days 2 hours 41 minutes ago)
KSTS Tower Audio Archives
FacilityFrequency
Santa Rosa Tower118.500

Sponsored by: North Coast Air

NOTICE

Unauthorized use prohibited. See LiveATC.net Terms of Service


Find LiveATC Audio Streams


Airport/ARTCC Code

Frequency
(e.g., 124.400, 128.75)
Site-wide search

Browse LiveATC Feeds
LiveATC Coverage Map
Top 50 LiveATC Feeds
Bad Weather Areas

LiveATC FAQ
Offer a LiveATC Feed
Contact LiveATC.net
Press Inquiries

LiveATC on iPhone
LiveATC on Android

LiveATC Mobile
(Mobile browser)

ATC Audio Archives
Interesting Recordings

LiveATC Forums


Home Page
About LiveATC.net
Make a Donation
LiveATC Bookstore

Terms of Use
Privacy Policy

ATC/Radar Sites
U.S. ARTCC Freqs
Canadian Air Freqs

AIRMETs/SIGMETs

FAA Airport Status
Nat'l Airspace Status
Arrival Demand Charts


Server Software By:
Icecast.org
Liquidsoap

Please make a donation to help us keep growing!